Location: Hac?musa Deresi
(39.1694°N, 32.2508°E)
Time: 10:03:24
(UTC+00:00)

ACS3 Solar Sail - Pass Details

Date: 22 April 2026
Orbit: 894 x 947 km, 97.2° (Epoch: 12 May)

Event Time Altitude Azimuth Distance (km) Brightness Sun altitude
Rises 21:55:29 0° 24° (NNE) 3,559 5.5 -38.4°
Reaches altitude 10° 21:58:20 10° 37° (NE) 2,622 4.6 -38.3°
Enters shadow 22:00:48 20° 58° (ENE) 1,988 3.6 -38.3°
